Home > Weather > Steinbach > Past weeks

Flag for Canada Weather for the Past 2 Weeks in Steinbach, Manitoba, Canada

Now
21 °F

Cold.


Feels Like: 16 °F
Forecast: 13 / 30 °F
Wind: 3 mph from Southwest

Location: Winnipeg The Forks Man

Current Time: Feb 5, 2016 at 6:30:15 PM

Latest Report: Feb 5, 2016 at 5:00 PM


Visibility: N/A

Pressure: 30.16 "Hg

Humidity: 78%

Dew point: 15 °F

Location of SteinbachLocation

Historic Weather in Steinbach — Graph

°F

Steinbach Temperature Yesterday

Maximum temperature yesterday: 18 °F (at 4:00 PM)
Minimum temperature yesterday: 7 °F (at 8:00 AM)
Average temperature yesterday: 14 °F

High & Low Weather Summary for the Past Weeks

 TemperatureHumidityPressure
High38 °F (Jan 27, 4:00 PM)98% (Jan 31, 3:00 AM)30.55 "Hg (Jan 31, 3:00 AM)
Low-1 °F (Jan 22, 5:00 AM)62% (Jan 26, 4:00 PM)29.19 "Hg (Jan 30, 1:00 AM)
Average19 °F81%29.92 "Hg
* Reported Jan 21 4:00 PM — Feb 5 4:00 PM, Steinbach, Weather by CustomWeather, © 2016

Note: Actual official high and low records may vary slightly from our data, if they occured in-between our weather recording intervals... More about our weather records

Advertising

Steinbach Weather History for the Previous 24 Hours

 ConditionsComfort  
Time TempWeatherWind HumidityBarometerVisibility
4:00 PM
Fri, Feb 5
22 °FCold.3 mph75%30.16 "HgN/A
3:00 PM22 °FCold.1 mph75%30.16 "HgN/A
2:00 PM21 °FCold.1 mph78%30.17 "HgN/A
1:00 PM20 °FCold.3 mph79%30.19 "HgN/A
12:00 PM21 °FCold.2 mph77%30.19 "HgN/A
11:00 AM20 °FCold.3 mph79%30.19 "HgN/A
10:00 AM18 °FCold.2 mph86%30.20 "HgN/A
9:00 AM15 °FCold.1 mph90%30.20 "HgN/A
8:00 AM13 °FCold.1 mph89%30.21 "HgN/A
7:00 AM14 °FCold.1 mph90%30.20 "HgN/A
6:00 AM15 °FCold.2 mph87%30.19 "HgN/A
5:00 AM16 °FCold.1 mph87%30.20 "HgN/A
4:00 AM15 °FCold.1 mph88%30.20 "HgN/A
3:00 AM15 °FCold.2 mph86%30.19 "HgN/A
2:00 AM15 °FCold.2 mph86%30.19 "HgN/A
1:00 AM15 °FCold.No wind85%30.20 "HgN/A
12:00 AM15 °FCold.2 mph84%30.21 "HgN/A
11:00 PM
Thu, Feb 4
15 °FCold.2 mph84%30.20 "HgN/A
10:00 PM17 °FCold.1 mph75%30.19 "HgN/A
9:00 PM15 °FCold.1 mph85%30.20 "HgN/A
8:00 PM17 °FCold.1 mph74%30.21 "HgN/A
7:00 PM15 °FCold.No wind79%30.20 "HgN/A
6:00 PM15 °FCold.3 mph85%30.20 "HgN/A
Weather by CustomWeather, © 2016

See weather overviewHow to use our weather pages